• In Uzbekistan
  • List of Countries
  • For 7 days
  • Water Temperature
  • Weather Map
  • Weather Widgets
  • user-avatar
    Login

    Hourly Weather Balho

    Today, 26 February, Wednesday

    Time Temperature Precipitation Wind Pressure Humidity
    00:00 +29°C° 0 mm 3 mps 738 mmHg 41%
    01:00 +28°C° 0 mm 3 mps 738 mmHg 45%
    02:00 +28°C° 0 mm 2 mps 738 mmHg 49%
    03:00 +27°C° 0 mm 1 mps 738 mmHg 51%
    04:00 +27°C° 0 mm 1 mps 738 mmHg 54%
    05:00 +26°C° 0 mm 1 mps 738 mmHg 56%
    06:00 +26°C° 0 mm 1 mps 739 mmHg 59%
    07:00 +27°C° 0 mm 1 mps 739 mmHg 59%
    08:00 +27°C° 0 mm 2 mps 740 mmHg 59%
    09:00 +28°C° 0 mm 2 mps 740 mmHg 60%
    10:00 +29°C° 0 mm 2 mps 740 mmHg 57%
    11:00 +30°C° 0 mm 2 mps 740 mmHg 55%
    12:00 +31°C° 0 mm 3 mps 740 mmHg 53%
    13:00 +31°C° 0 mm 3 mps 739 mmHg 51%
    14:00 +33°C° 0 mm 4 mps 738 mmHg 50%
    15:00 +33°C° 0 mm 4 mps 737 mmHg 48%
    16:00 +33°C° 0 mm 4 mps 737 mmHg 48%
    17:00 +33°C° 0 mm 4 mps 737 mmHg 48%
    18:00 +33°C° 0 mm 3 mps 737 mmHg 48%
    19:00 +31°C° 0 mm 3 mps 738 mmHg 55%
    20:00 +29°C° 0 mm 4 mps 738 mmHg 62%
    21:00 +28°C° 0 mm 4 mps 738 mmHg 69%
    22:00 +27°C° 0 mm 3 mps 739 mmHg 71%
    23:00 +27°C° 0 mm 2 mps 739 mmHg 73%

    Tomorrow, 27 February, Thursday

    Time Temperature Precipitation Wind Pressure Humidity
    00:00 +26°C° 0 mm 2 mps 739 mmHg 76%
    01:00 +26°C° 0 mm 2 mps 739 mmHg 78%
    02:00 +25°C° 0 mm 2 mps 738 mmHg 79%
    03:00 +25°C° 0 mm 1 mps 737 mmHg 81%
    04:00 +24°C° 0 mm 1 mps 738 mmHg 81%
    05:00 +24°C° 0 mm 1 mps 738 mmHg 82%
    06:00 +24°C° 0 mm 1 mps 739 mmHg 82%
    07:00 +25°C° 0 mm 1 mps 739 mmHg 78%
    08:00 +25°C° 0 mm 1 mps 740 mmHg 74%
    09:00 +26°C° 0 mm 1 mps 740 mmHg 70%
    10:00 +28°C° 0 mm 2 mps 740 mmHg 62%
    11:00 +30°C° 0 mm 2 mps 739 mmHg 55%
    12:00 +31°C° 0 mm 2 mps 739 mmHg 48%
    13:00 +34°C° 0 mm 2 mps 738 mmHg 42%
    14:00 +35°C° 0 mm 2 mps 738 mmHg 37%
    15:00 +36°C° 0 mm 2 mps 737 mmHg 32%
    16:00 +36°C° 0 mm 3 mps 737 mmHg 33%
    17:00 +36°C° 0 mm 4 mps 737 mmHg 34%
    18:00 +35°C° 0 mm 4 mps 737 mmHg 35%
    19:00 +34°C° 0 mm 4 mps 737 mmHg 42%
    20:00 +31°C° 0 mm 3 mps 737 mmHg 50%
    21:00 +29°C° 0 mm 3 mps 737 mmHg 57%
    22:00 +29°C° 0 mm 2 mps 737 mmHg 60%
    23:00 +28°C° 0 mm 2 mps 737 mmHg 63%

    Day after tomorrow, 28 February, Friday

    Time Temperature Precipitation Wind Pressure Humidity
    00:00 +27°C° 0 mm 1 mps 737 mmHg 66%
    01:00 +27°C° 0 mm 1 mps 737 mmHg 67%
    02:00 +27°C° 0 mm 1 mps 737 mmHg 68%
    03:00 +24°C° 0 mm 0 mps 736 mmHg 69%
    04:00 +24°C° 0 mm 0 mps 737 mmHg 71%
    05:00 +25°C° 0 mm 1 mps 737 mmHg 73%
    06:00 +25°C° 0 mm 1 mps 737 mmHg 75%
    07:00 +26°C° 0 mm 1 mps 738 mmHg 68%
    08:00 +28°C° 0 mm 1 mps 739 mmHg 61%
    09:00 +29°C° 0 mm 2 mps 739 mmHg 54%
    10:00 +31°C° 0 mm 2 mps 739 mmHg 43%
    11:00 +34°C° 0 mm 2 mps 738 mmHg 32%
    12:00 +36°C° 0 mm 3 mps 738 mmHg 21%
    13:00 +37°C° 0 mm 3 mps 737 mmHg 19%
    14:00 +38°C° 0 mm 4 mps 736 mmHg 17%
    15:00 +40°C° 0 mm 5 mps 735 mmHg 15%
    16:00 +39°C° 0 mm 5 mps 735 mmHg 15%
    17:00 +38°C° 0 mm 6 mps 735 mmHg 16%
    18:00 +36°C° 0 mm 6 mps 735 mmHg 17%
    19:00 +35°C° 0 mm 5 mps 735 mmHg 21%
    20:00 +33°C° 0 mm 4 mps 736 mmHg 24%
    21:00 +30°C° 0 mm 3 mps 736 mmHg 27%
    22:00 +30°C° 0 mm 3 mps 736 mmHg 29%
    23:00 +29°C° 0 mm 2 mps 735 mmHg 31%

    29 February, Saturday

    Time Temperature Precipitation Wind Pressure Humidity
    00:00 +28°C° 0 mm 2 mps 735 mmHg 33%
    01:00 +27°C° 0 mm 2 mps 735 mmHg 36%
    02:00 +27°C° 0 mm 2 mps 735 mmHg 39%
    03:00 +26°C° 0 mm 2 mps 734 mmHg 42%
    04:00 +25°C° 0 mm 2 mps 735 mmHg 46%
    05:00 +25°C° 0 mm 1 mps 735 mmHg 50%
    06:00 +24°C° 0 mm 1 mps 735 mmHg 55%
    07:00 +26°C° 0 mm 1 mps 736 mmHg 49%
    08:00 +27°C° 0 mm 1 mps 736 mmHg 43%
    09:00 +29°C° 0 mm 1 mps 737 mmHg 37%
    10:00 +31°C° 0 mm 1 mps 737 mmHg 31%
    11:00 +33°C° 0 mm 1 mps 736 mmHg 26%
    12:00 +35°C° 0 mm 1 mps 736 mmHg 20%
    13:00 +36°C° 0 mm 1 mps 735 mmHg 18%
    14:00 +37°C° 0 mm 1 mps 734 mmHg 16%
    15:00 +39°C° 0 mm 1 mps 734 mmHg 13%
    16:00 +39°C° 0 mm 2 mps 734 mmHg 15%
    17:00 +38°C° 0 mm 3 mps 734 mmHg 16%
    18:00 +37°C° 0 mm 4 mps 734 mmHg 17%
    19:00 +35°C° 0 mm 4 mps 734 mmHg 21%
    20:00 +33°C° 0 mm 3 mps 735 mmHg 25%
    21:00 +30°C° 0 mm 3 mps 735 mmHg 29%
    22:00 +30°C° 0 mm 2 mps 735 mmHg 31%
    23:00 +29°C° 0 mm 2 mps 735 mmHg 34%

    1 March, Sunday

    Time Temperature Precipitation Wind Pressure Humidity
    00:00 +28°C° 0 mm 1 mps 735 mmHg 36%
    01:00 +27°C° 0 mm 1 mps 734 mmHg 40%
    02:00 +27°C° 0 mm 1 mps 734 mmHg 43%
    03:00 +26°C° 0 mm 1 mps 734 mmHg 47%
    04:00 +26°C° 0 mm 1 mps 734 mmHg 49%
    05:00 +25°C° 0 mm 1 mps 735 mmHg 50%
    06:00 +25°C° 0 mm 1 mps 735 mmHg 52%
    07:00 +26°C° 0 mm 1 mps 736 mmHg 47%
    08:00 +28°C° 0 mm 1 mps 737 mmHg 41%
    09:00 +29°C° 0 mm 1 mps 738 mmHg 35%
    10:00 +31°C° 0 mm 1 mps 738 mmHg 30%
    11:00 +33°C° 0 mm 1 mps 737 mmHg 25%
    12:00 +35°C° 0 mm 1 mps 737 mmHg 20%
    13:00 +36°C° 0 mm 1 mps 736 mmHg 19%
    14:00 +38°C° 0 mm 2 mps 735 mmHg 18%
    15:00 +39°C° 0 mm 2 mps 734 mmHg 16%
    16:00 +38°C° 0 mm 3 mps 734 mmHg 21%
    17:00 +37°C° 0 mm 4 mps 735 mmHg 25%
    18:00 +38°C° 0 mm 6 mps 735 mmHg 29%
    19:00 +35°C° 0 mm 5 mps 735 mmHg 38%
    20:00 +33°C° 0 mm 4 mps 735 mmHg 46%
    21:00 +30°C° 0 mm 3 mps 736 mmHg 55%
    22:00 +29°C° 0 mm 3 mps 736 mmHg 57%
    23:00 +29°C° 0 mm 2 mps 736 mmHg 59%

    2 March, Monday

    Time Temperature Precipitation Wind Pressure Humidity
    00:00 +28°C° 0 mm 2 mps 736 mmHg 62%
    01:00 +28°C° 0 mm 2 mps 736 mmHg 65%
    02:00 +27°C° 0 mm 2 mps 735 mmHg 69%
    03:00 +26°C° 0 mm 2 mps 735 mmHg 73%
    04:00 +26°C° 0 mm 2 mps 735 mmHg 75%
    05:00 +26°C° 0 mm 1 mps 735 mmHg 78%
    06:00 +25°C° 0 mm 1 mps 736 mmHg 80%
    07:00 +26°C° 0 mm 1 mps 736 mmHg 74%
    08:00 +28°C° 0 mm 1 mps 737 mmHg 68%
    09:00 +29°C° 0 mm 1 mps 738 mmHg 61%
    10:00 +30°C° 0 mm 1 mps 738 mmHg 53%
    11:00 +32°C° 0 mm 1 mps 737 mmHg 45%
    12:00 +34°C° 0 mm 1 mps 737 mmHg 36%
    13:00 +37°C° 0 mm 2 mps 736 mmHg 32%
    14:00 +38°C° 0 mm 2 mps 735 mmHg 29%
    15:00 +39°C° 0 mm 2 mps 735 mmHg 25%
    16:00 +38°C° 0 mm 3 mps 735 mmHg 29%
    17:00 +37°C° 0 mm 5 mps 734 mmHg 33%
    18:00 +38°C° 0 mm 6 mps 734 mmHg 37%
    19:00 +35°C° 0 mm 5 mps 735 mmHg 43%
    20:00 +33°C° 0 mm 4 mps 735 mmHg 49%
    21:00 +31°C° 0 mm 3 mps 735 mmHg 55%
    22:00 +30°C° 0 mm 3 mps 735 mmHg 57%
    23:00 +29°C° 0 mm 2 mps 735 mmHg 58%
    Show more